Regional Weather Roundup
Issued by NWS

Home | Current Version | Previous Version | Text Only | Print | Product List | Glossary Off
Versions: 1 2 3 4 5 6 7 8 9 10 11 12 13 14 15 16 17 18 19 20 21 22 23 24 25 26 27 28 29 30 31 32 33 34 35 36 37 38 39 40 41 42 43 44 45 46 47 48 49 50

000
ASUS43 KLSX 230259
RWRMO

WEATHER SUMMARY FOR MISSOURI
NATIONAL WEATHER SERVICE SPRINGFIELD MO
1000 PM CDT WED OCT 22 2014

NOTE: "FAIR" INDICATES FEW OR NO CLOUDS BELOW 12,000 FEET WITH NO
       SIGNIFICANT WEATHER AND/OR OBSTRUCTIONS TO VISIBILITY.
       CURRENT SKY AND/OR WEATHER CONDITIONS ARE NOT AVAILABLE FOR
       CHILLICOTHE AND FARMINGTON.

MOZ001>031-035>038-043-044-053-054-230400-
...NORTHERN AND WESTERN MISSOURI...

CITY           SKY/WX    TMP DP  RH WIND       PRES   REMARKS
KANSAS CTY INT CLEAR     60  51  72 SE10      30.11S
KANSAS C DTWN  CLEAR     65  50  58 SE9       30.11R
LEE`S SUMMIT   PTCLDY    62  48  60 SE9       30.13S
ST JOSEPH      CLEAR     62  51  67 S6        30.10R
KIRKSVILLE     CLEAR     49  42  77 SE8       30.19S

$$
MOZ066>068-077>081-088>096-101>105-230400-
...SOUTHWEST MISSOURI...

CITY           SKY/WX    TMP DP  RH WIND       PRES   REMARKS
SPRINGFIELD    CLEAR     56  47  71 SE12      30.16F
JOPLIN         PTCLDY    61  52  72 SE9       30.15R

$$
MOZ032>034-039>042-045>050-055>058-069>072-230400-
...CENTRAL MISSOURI...

CITY           SKY/WX    TMP DP  RH WIND       PRES   REMARKS
COLUMBIA       CLEAR     52  42  69 E9        30.20R
JEFFERSON CITY CLEAR     47  41  80 SE6       30.19S
ROLLA          CLEAR     49  39  68 SE10      30.19S
SEDALIA        PTCLDY    54  46  74 SE7       30.17S
OSAGE BEACH    CLEAR     54  43  66 SE3       30.18S

$$
MOZ051-052-059>065-230400-
...EAST CENTRAL MISSOURI...

CITY           SKY/WX    TMP DP  RH WIND       PRES   REMARKS
ST LOUIS INTL  PTCLDY    50  41  71 E6        30.24R
SPIRIT OF STL  CLEAR     41  40  96 CALM      30.22S
ST CHARLES     CLEAR     46  41  82 NE3       30.24R

$$
MOZ072>076-082>087-097>100-106>115-230400-
...SOUTH CENTRAL AND SOUTHEAST MISSOURI...

CITY           SKY/WX    TMP DP  RH WIND       PRES   REMARKS
CAPE GIRARDEAU CLEAR     44  41  89 CALM      30.24R
FARMINGTON     CLEAR     43  39  87 CALM      30.25R
POPLAR BLUFF   CLEAR     45  42  89 CALM      30.22R
WEST PLAINS    CLEAR     44  40  85 CALM      30.23R

$$



USA.gov is the U.S. government's official web portal to all federal, state and local government web resources and services.